Home > Weather > Brades > Past weeks

Flag for Montserrat Past Weather in Brades, Montserrat — Yesterday and Last 2 Weeks

Now
79 °F

Passing clouds.


Feels Like: 81 °F
Forecast: 78 / 83 °F
Wind: 10 mph from East

Location: Vc Bird International Antigua Airport

Current Time: May 25, 2016 at 1:20:28 AM

Latest Report: May 25, 2016 at 1:00 AM


Visibility: N/A

Pressure: 30.07 "Hg

Humidity: 74%

Dew Point: 70 °F

Location of BradesLocation

Past Weather in Brades — Graph

°F

Brades Temperature Yesterday

Maximum temperature yesterday: 86 °F (at 11:00 AM)
Minimum temperature yesterday: 81 °F (at 12:00 AM)
Average temperature yesterday: 83 °F

High & Low Weather Summary for the Past Weeks

 TemperatureHumidityPressure
High86 °F (May 15, 3:00 PM)100% (May 12, 2:00 AM)30.12 "Hg (May 12, 2:00 AM)
Low73 °F (May 10, 6:00 PM)62% (May 15, 3:00 PM)29.98 "Hg (May 10, 3:00 AM)
Average81 °F75%30.04 "Hg
* Reported May 10 12:00 AM — May 25 12:00 AM, Brades, Weather by CustomWeather, © 2016

Note: Actual official high and low records may vary slightly from our data, if they occured in-between our weather recording intervals... More about our weather records

Advertising

Brades Weather History for the Previous 24 Hours

Scroll right to see more
 ConditionsComfort  
Time TempWeatherWind HumidityBarometerVisibility
12:00 AM
Wed, May 25
81 °FPassing clouds.13 mph70%30.09 "HgN/A
11:00 PM
Tue, May 24
81 °FPassing clouds.10 mph74%30.12 "HgN/A
10:00 PM81 °FPassing clouds.13 mph74%30.12 "HgN/A
9:00 PM81 °FPassing clouds.12 mph79%30.09 "HgN/A
8:00 PM81 °FPassing clouds.10 mph79%30.09 "HgN/A
7:00 PM81 °FPassing clouds.10 mph74%30.07 "HgN/A
6:00 PM82 °FPassing clouds.9 mph70%30.07 "HgN/A
5:00 PM84 °FPassing clouds.10 mph66%30.07 "HgN/A
4:00 PM84 °FPassing clouds.13 mph66%30.04 "HgN/A
3:00 PM86 °FScattered clouds.13 mph66%30.07 "HgN/A
2:00 PM86 °FScattered clouds.14 mph66%30.07 "HgN/A
1:00 PM86 °FScattered clouds.13 mph66%30.09 "HgN/A
12:00 PM84 °FScattered clouds.13 mph70%30.12 "HgN/A
11:00 AM86 °FScattered clouds.12 mph66%30.12 "HgN/A
10:00 AM84 °FScattered clouds.12 mph70%30.12 "HgN/A
9:00 AM84 °FPassing clouds.12 mph70%30.12 "HgN/A
8:00 AM84 °FScattered clouds.10 mph70%30.12 "HgN/A
7:00 AM82 °FPassing clouds.9 mph74%30.09 "HgN/A
6:00 AM81 °FScattered clouds.8 mph79%30.09 "HgN/A
5:00 AM81 °FPassing clouds.9 mph74%30.09 "HgN/A
4:00 AM81 °FPassing clouds.9 mph79%30.09 "HgN/A
Weather by CustomWeather, © 2016

See weather overviewHow to use our weather pages